SCP
0 0 0 0 0 0 0 0 0 0 0 0 0 0 -0 0 0 0 0 0 0 0 0 0 0 0 0 0 0 -0 -0 0 0 0 0 0 0 0 0 0 0 0 0 0 0 0 0 0 0 0 0 0 0 0
0 0 0 0 0 0 0 0 0 0 0 0 0 0 -0 0 0 0 0 0 0 0 0 0 0 0 0 0 0 0 0 -0 0 0 0 0 0 0 0 0 0 0 0 0 0 0 0 0 0 -0 0 0 0 0
0 0 0 0 0 0 0 0 0 0 0 0 0 0 -0 0 0 0 0 0 0 0 0 0 0 0 0 0 0 0 0 0 -0 -0 0 0 0 0 0 0 0 0 0 0 0 0 0 0 -0 -0 0 0 0 0
0 0 0 0 0 0 0 0 0 -0 0 0 0 0 0 0 0 0 0 0 0 0 0 0 0 0 0 0 0 0 0 0 -0 -0 0 0 0 0 0 0 0 0 0 0 0 0 0 0 0 0 0 0 0 0
0 0 0 0 0 0 0 0 -0 -0 0 -0 0 -0 0 0 0 0 0 0 0 0 0 0 0 0 0 0 0 0 0 0 -0 -0 0 0 0 0 0 0 0 0 0 0 0 0 0 0 0 0 0 0 0 0
0 0 0 0 0 0 0 0 0 -0 -0 -0 0 0 -0 0 0 0 0 0 0 0 0 0 0 0 0 0 0 0 0 0 0 -0 -0 -0 0 0 0 0 0 0 0 0 0 0 0 0 0 0 0 0 0 0
0 0 0 0 0 -0 0 0 0 0 -0 0 0 0 0 0 0 0 0 0 0 0 0 0 0 -0 0 0 0 0 0 -0 -0 -0 -0 -0 0 0 0 0 0 0 0 0 0 0 0 0 0 0 0 0 0 0
0 0 0 0 0 0 0 -0 0 -0 -0 0 0 0 0 0 0 -0 0 0 -0 0 0 0 0 0 0 0 0 0 0 -0 -0 -0 -0 0 0 0 0 0 0 0 0 0 0 0 0 0 0 0 0 0 0 0
0 0 0 0 0 0 0 -0 -0 -0 -0 0 0 0 0 0 0 -0 -0 0 0 0 0 0 0 0 0 0 0 0 0 -0 -0 -0 0 0 0 0 0 0 0 0 0 0 0 0 0 0 0 0 0 0 0 0
0 -0 -0 -0 0 -0 -0 -0 -0 -0 -0 0 0 0 0 0 0 0 0 0 -0 0 -0 -0 0 0 0 0 0 0 -0 -0 0 0 -0 0 0 0 0 0 -0 0 0 0 0 0 0 0 0 0 0 0 0 0
-0 -0 -0 0 -0 -0 -0 -0 -0 -0 -0 0 0 0 0 0 0 0 -0 -0 -0 -0 -0 0 0 0 0 0 0 0 0 0 0 0 0 0 0 0 0 0 -0 0 0 0 0 0 0 0 0 0 0 0 0 0
-0 -0 0 0 0 -0 -0 -0 -0 -0 0 0 0 0 0 -0 -0 -0 -0 -0 -0 -0 0 0 0 0 0 0 0 -0 -0 0 0 0 0 0 0 0 -0 -0 0 0 0 0 0 0 0 0 0 0 0 0 0 0
-0 0 0 0 0 -0 0 0 -0 0 -0 -0 0 -0 -0 0 -0 -0 -0 -0 -0 -0 0 0 0 0 0 0 0 -0 0 -0 0 0 0 0 0 0 0 0 0 0 0 0 0 0 0 0 0 0 0 0 0 0
0 0 0 0 -0 -0 0 0 0 0 -0 -0 -0 0 -0 -0 -0 -0 -0 -0 0 0 0 -0 0 0 0 0 0 0 0 0 0 0 0 0 0 0 0 0 0 0 0 0 0 0 0 0 0 0 0 0 0 0
-0 -0 0 0 0 0 0 0 0 0 -0 -0 -0 -0 -0 -0 -0 -0 0 0 0 -0 0 -0 0 0 0 0 0 0 0 0 0 0 0 0 0 0 0 0 0 0 0 0 0 0 0 0 0 0 0 0 0 0
-0 0 0 0 0 0 0 0 0 0 -0 -0 -0 -0 -0 -0 -0 -0 -0 0 0 0 0 0 0 0 0 0 0 0 0 0 0 0 0 0 0 0 0 0 0 0 0 0 0 0 0 0 0 0 0 0 0 0
0 0 0 0 0 0 -0 0 0 0 -0 -0 -0 -0 -0 -0 -0 -0 0 0 0 0 0 0 0 0 0 0 0 0 0 0 0 0 0 0 0 0 0 0 0 0 0 0 0 0 0 0 0 0 0 0 0 0
0 0 0 0 0 0 0 0 0 0 0 -0 -0 -0 -0 -0 -0 0 0 0 0 0 0 0 0 0 0 0 0 0 0 0 0 0 0 0 0 0 0 0 0 0 0 0 0 0 0 0 0 0 0 0 0 0
0 0 0 0 0 0 0 0 0 0 -0 -0 -0 0 0 0 0 0 0 0 0 0 0 0 0 0 0 0 0 0 0 0 0 0 0 0 0 0 0 0 0 0 0 0 0 0 0 0 0 0 0 0 0 0
0 0 0 0 0 0 0 0 0 0 0 -0 -0 -0 0 0 0 -0 -0 0 0 0 0 0 0 0 0 0 0 0 0 0 0 0 0 0 0 0 0 0 0 -0 0 0 0 0 0 0 0 0 0 0 0 0
0 0 0 0 0 0 0 0 0 0 0 0 0 -0 0 0 0 -0 0 0 0 0 0 0 0 0 0 0 0 0 0 0 0 0 0 0 0 0 0 0 0 0 0 0 0 0 0 0 0 0 0 0 0 0
0 0 0 0 0 0 0 0 0 0 0 -0 0 0 0 0 0 -0 -0 -0 0 0 0 0 0 0 0 0 0 0 0 0 0 0 0 -0 0 0 0 0 0 0 0 0 0 0 0 0 0 0 0 0 0 0
0 0 0 0 0 0 -0 0 0 0 0 0 0 0 0 0 0 0 -0 -0 -0 0 0 0 0 0 0 -0 -0 -0 0 0 0 -0 0 0 0 0 0 0 0 0 0 0 0 0 0 0 0 0 0 0 0 0
0 0 0 0 0 0 0 0 0 0 0 0 0 0 0 0 0 0 -0 -0 -0 0 -0 0 0 0 -0 -0 -0 -0 -0 -0 -0 -0 0 0 0 0 0 0 0 0 0 0 0 0 0 0 0 0 0 0 0 0
0 0 0 0 0 0 0 0 0 0 0 0 0 0 0 0 0 -0 -0 0 0 0 0 0 0 0 -0 -0 -0 -0 -0 -0 -0 0 0 0 0 0 0 0 0 0 0 0 0 0 0 0 0 0 0 0 0 0
0 0 0 0 0 0 0 0 0 0 0 0 0 0 0 0 -0 -0 -0 0 0 0 0 0 0 0 0 -0 -0 -0 -0 -0 0 0 0 0 0 0 0 0 0 0 0 0 0 0 0 0 0 0 0 0 0 0
0 0 0 0 0 0 0 0 0 0 0 0 0 0 0 0 -0 -0 0 0 0 0 0 0 0 0 0 0 -0 0 0 0 0 0 0 -0 -0 0 0 -0 -0 -0 -0 0 0 0 0 0 0 0 0 0 0 0
0 0 0 0 0 0 0 0 0 0 0 0 0 0 0 0 -0 0 0 0 0 0 0 0 0 0 0 -0 0 -0 0 0 -0 -0 -0 -0 -0 -0 -0 -0 -0 -0 0 0 0 0 0 0 0 0 0 0 0 0
0 0 0 0 0 0 0 0 0 0 0 0 0 0 0 0 0 0 0 0 0 0 0 -0 -0 -0 -0 -0 -0 0 0 0 0 0 -0 -0 0 -0 0 0 0 0 0 0 0 0 0 0 0 0 0 0 -0 0
0 0 0 0 0 0 0 0 0 0 0 0 0 0 0 0 0 0 0 0 0 0 -0 -0 0 0 0 0 0 0 0 0 0 -0 0 0 0 -0 0 0 0 0 0 0 0 0 0 0 0 0 0 0 0 0
0 0 0 0 0 0 0 0 0 0 0 0 0 0 0 0 0 0 0 0 0 0 0 0 0 0 0 0 0 0 0 0 -0 -0 -0 -0 0 0 0 0 0 0 0 0 0 0 0 0 0 0 0 0 0 0
0 0 0 0 0 0 0 0 0 0 0 0 0 0 0 0 0 0 0 0 0 0 0 0 0 0 0 0 0 0 -0 -0 -0 -0 -0 -0 0 0 -0 -0 -0 -0 0 0 0 0 0 0 0 0 0 0 0 0
0 0 0 0 0 0 0 0 0 0 0 0 0 0 0 0 0 0 0 0 0 0 0 0 0 0 0 0 -0 -0 -0 -0 -0 -0 -0 -0 -0 0 -0 -0 -0 0 0 0 0 0 0 0 0 0 0 0 -0 0
Wind_Speed_500mb
61 63 69 73 76 79 80 79 79 76 68 62 59 50 47 46 44 38 46 48 46 18 32 42 40 33 35 29 21 11 4 13 8 19 15 11 8 15 11 15 16 18 19 11 7 5 19 23 15 12 5 3 7 16
67 71 76 78 80 87 87 78 75 71 57 56 60 51 49 49 47 42 53 50 46 45 36 30 35 42 54 59 38 17 13 8 6 8 4 1 7 7 10 12 9 12 13 14 21 16 4 47 2 32 12 9 5 8
77 81 84 86 90 93 99 70 73 67 62 58 55 53 54 54 53 52 62 57 54 48 43 42 56 78 69 70 60 28 17 24 18 17 7 7 13 11 12 11 8 11 8 7 7 17 29 32 45 45 32 34 29 28
84 91 91 92 94 86 85 77 74 67 63 56 56 57 55 53 53 54 62 63 61 24 9 26 42 53 47 53 57 73 70 40 33 22 11 7 8 10 9 4 11 7 27 15 10 18 17 37 40 49 41 35 33 30
91 96 95 99 95 96 90 82 73 67 67 62 56 61 56 45 42 52 63 69 64 58 3 19 36 55 37 34 43 57 69 55 31 12 10 10 10 8 5 4 9 15 14 12 9 26 8 5 18 8 17 26 26 31
97 94 96 102 109 99 92 85 78 67 61 61 43 43 35 31 37 48 37 70 72 65 26 9 32 36 39 42 42 48 59 47 40 16 9 15 45 17 10 11 6 49 41 39 9 23 25 19 20 35 46 40 39 39
88 99 104 100 103 106 97 79 64 65 61 56 40 33 20 23 29 19 11 17 29 68 19 5 7 20 41 36 35 43 47 40 38 25 19 22 39 9 8 14 12 53 55 56 50 41 29 43 47 27 46 58 56 58
93 93 90 88 97 108 82 72 64 51 57 43 34 25 21 18 18 26 40 12 49 47 13 5 7 3 33 20 18 32 23 30 19 20 11 9 6 11 11 11 22 33 53 55 54 50 59 57 50 57 65 63 61 62
84 88 72 73 72 70 32 19 41 43 41 36 29 25 17 12 11 12 14 37 48 25 12 9 9 9 26 21 19 23 24 11 21 12 12 19 12 12 12 18 43 52 48 62 58 64 64 65 69 69 58 61 64 68
79 69 52 48 48 53 46 35 46 61 49 43 33 12 10 9 12 8 6 11 9 14 14 6 18 15 21 23 14 8 19 9 9 14 16 8 16 37 32 43 48 55 65 64 56 53 59 60 63 60 56 59 57 68
70 43 38 31 30 44 53 60 62 55 41 24 10 7 15 18 9 3 3 5 10 9 19 18 46 15 33 8 8 15 4 6 7 7 14 9 9 15 52 53 52 70 63 57 56 56 56 49 46 61 66 65 63 60
36 30 32 19 25 22 24 28 29 27 17 13 10 9 8 6 5 4 6 6 8 6 7 7 19 55 22 20 5 9 6 8 13 16 10 7 10 34 63 86 93 78 69 63 58 54 53 56 61 58 54 48 46 45
34 26 22 23 15 12 18 16 13 10 10 6 3 4 3 6 6 5 5 3 9 10 9 5 5 30 13 19 5 5 12 11 5 7 7 10 5 19 16 30 30 50 47 47 47 46 43 38 36 36 35 38 40 39
24 11 15 17 6 9 12 11 8 5 5 3 3 4 5 4 5 6 8 8 20 24 30 13 6 8 10 7 7 12 3 6 3 3 9 3 24 31 18 6 26 33 30 27 22 21 20 18 20 25 27 28 30 29
33 26 20 23 4 2 5 6 9 11 5 2 2 3 5 8 18 22 28 18 31 47 21 9 7 8 4 8 6 3 5 8 9 8 5 14 22 21 18 18 14 11 11 10 8 6 5 7 7 10 13 15 18 20
17 13 21 14 6 3 5 11 18 14 7 1 1 1 6 4 9 16 26 21 46 52 8 9 6 4 7 7 4 10 2 5 0 5 14 19 18 20 19 18 15 12 10 13 12 9 8 7 7 11 14 16 19 21
20 8 7 9 7 11 12 16 11 7 5 7 8 21 14 19 19 30 23 35 45 23 4 3 3 8 5 3 7 3 3 4 6 5 19 18 21 20 16 15 15 15 15 14 15 19 18 17 16 17 20 26 25 26
20 16 13 13 12 16 21 10 8 9 6 13 7 9 14 23 22 27 24 33 24 20 10 3 5 4 5 8 6 5 8 23 11 6 12 20 19 15 13 14 17 19 21 23 23 24 24 21 21 28 27 26 26 31
31 20 17 16 14 11 8 6 8 7 13 8 14 23 21 20 33 31 27 28 27 23 16 7 8 7 6 7 6 19 26 17 12 20 13 20 22 19 19 21 22 25 27 28 26 27 28 28 32 30 30 31 39 40
37 35 24 19 16 5 7 8 9 11 6 6 11 11 12 12 20 16 20 19 17 8 11 9 6 5 7 15 21 23 23 20 19 7 18 25 24 20 19 20 22 24 25 27 31 32 32 34 34 35 36 40 43 46
37 40 33 35 29 22 11 10 12 11 15 12 6 12 8 13 13 3 1 3 7 8 4 11 11 9 15 12 19 21 18 18 15 8 7 11 18 17 17 19 18 20 26 31 35 38 38 42 40 39 40 45 46 46
37 37 34 38 23 17 19 23 14 7 9 16 6 11 5 3 7 7 5 14 10 7 9 4 5 10 11 13 17 22 20 21 20 15 11 14 11 16 20 21 22 32 36 37 38 41 43 41 40 42 45 49 48 52
13 19 14 21 19 17 11 17 15 13 6 5 4 2 3 1 3 2 8 9 9 8 10 12 11 9 16 22 20 21 23 21 15 20 24 28 29 29 29 30 29 34 41 41 38 42 46 44 45 48 50 52 55 58
7 8 8 10 15 5 5 9 11 7 7 4 5 5 2 6 12 7 5 5 8 13 6 6 4 3 10 13 13 16 17 14 17 24 26 24 31 33 30 33 34 35 37 40 41 45 46 46 47 51 54 57 59 61
4 4 4 5 3 4 4 5 4 3 4 4 7 3 4 8 5 5 2 4 6 14 15 12 9 6 6 9 11 12 13 12 16 27 31 28 32 36 36 36 38 39 36 39 45 48 52 52 55 57 58 56 58 60
2 7 6 2 5 4 4 4 5 5 4 5 4 9 5 3 7 2 5 9 7 13 13 10 10 10 6 5 7 10 14 14 14 23 30 26 26 31 39 43 45 45 40 41 48 56 60 59 57 57 59 57 56 55
2 5 8 8 5 7 6 1 3 2 3 3 6 6 1 8 2 5 6 9 5 7 4 8 9 10 9 8 10 11 11 12 14 30 34 32 32 32 36 45 51 53 48 48 51 51 54 57 58 59 60 57 52 50
5 11 2 13 5 9 4 4 5 5 3 8 4 7 5 9 5 2 3 9 4 5 11 15 16 16 15 17 22 25 30 33 36 36 39 45 47 48 50 55 58 56 53 49 47 50 51 52 55 56 55 56 56 51
5 14 7 6 5 8 6 5 3 3 6 2 2 3 4 5 10 6 6 6 12 18 20 20 17 16 18 23 26 28 31 33 38 46 52 58 54 54 56 57 58 55 55 56 52 49 50 51 51 50 52 53 53 49
9 16 5 6 7 8 8 10 8 9 10 13 14 17 15 16 25 20 14 12 16 20 21 18 17 18 22 23 23 22 25 30 31 40 57 59 60 59 53 52 52 52 51 51 54 54 48 45 47 48 50 51 48 45
11 6 3 6 5 4 15 17 22 24 18 20 26 16 11 10 21 36 26 17 16 17 20 21 23 24 25 27 31 36 40 41 39 44 58 61 62 58 54 52 50 49 48 46 45 44 43 45 46 48 47 48 45 41
8 4 2 5 4 8 7 3 1 4 6 5 5 5 6 7 9 14 25 17 14 19 24 26 29 31 31 31 31 40 50 58 57 56 56 59 60 57 54 52 49 45 42 41 40 40 38 41 45 46 47 45 41 39
4 2 3 4 3 1 1 1 3 4 5 5 5 5 6 6 7 7 15 15 17 21 25 27 31 39 47 52 54 59 59 60 59 58 56 55 55 54 51 47 43 39 37 38 39 39 39 41 45 44 41 39 37 36
Wind_Direction_500mb
304 303 302 302 304 304 301 298 295 289 282 275 271 268 253 249 255 255 252 252 255 257 273 263 253 251 255 258 261 268 309 224 250 215 209 184 208 194 155 154 170 164 159 183 159 193 261 147 103 198 196 118 142 174
301 302 303 302 303 301 296 295 294 292 285 283 274 255 244 243 245 245 254 258 257 242 252 264 260 250 247 256 260 249 236 251 305 312 351 256 167 171 163 196 184 200 194 181 196 206 40 188 228 207 167 144 170 224
302 303 301 301 302 302 297 289 286 285 281 281 281 256 250 244 246 246 251 257 250 238 242 240 250 260 261 258 245 249 227 241 253 265 301 292 238 158 176 217 139 227 168 201 150 229 232 232 236 242 246 260 272 273
304 303 303 302 303 300 298 294 288 277 276 274 270 260 249 244 246 251 255 257 251 239 218 243 248 252 259 260 250 242 246 253 240 255 288 265 291 286 196 159 192 172 151 164 264 278 247 247 238 243 256 264 271 278
307 307 305 301 299 298 295 287 278 273 271 272 264 266 243 240 250 259 260 255 242 229 253 238 248 246 250 260 238 236 235 232 231 222 231 263 274 260 259 134 207 189 161 174 204 221 221 204 157 174 259 275 288 288
313 312 309 304 303 299 292 282 273 260 258 264 255 263 232 248 255 271 256 247 245 233 225 231 252 262 263 233 228 240 228 222 221 205 221 232 245 231 250 202 211 196 197 199 210 225 226 197 246 284 291 296 299 291
319 314 316 315 313 306 289 275 266 246 239 250 243 253 232 239 271 252 242 297 206 195 183 189 272 235 230 214 213 227 235 217 213 220 218 234 251 241 287 232 192 203 216 222 230 239 262 256 262 269 295 303 299 296
323 328 327 323 322 322 306 252 236 235 221 227 234 203 213 239 270 288 228 257 184 179 185 211 226 226 177 179 195 200 209 221 227 220 228 245 278 197 250 236 210 214 218 224 231 237 249 260 259 277 291 290 289 292
331 334 332 337 344 357 18 152 187 194 190 193 170 184 194 238 239 241 218 222 192 195 181 182 203 207 180 203 193 185 201 210 212 209 211 185 217 227 230 199 207 206 216 237 247 246 249 254 265 275 281 285 290 295
336 340 347 358 18 41 63 101 136 136 140 150 163 157 185 198 187 198 126 175 207 224 220 228 201 222 183 179 194 200 198 197 218 208 150 211 236 235 231 219 214 215 222 230 235 247 248 255 258 271 288 294 292 297
340 352 354 14 48 70 81 93 113 133 145 147 151 161 158 163 202 170 131 226 212 219 206 216 197 183 198 169 187 203 307 243 218 191 190 199 256 222 220 220 223 236 230 233 243 254 262 266 273 288 291 292 295 293
357 1 5 78 62 80 94 102 116 129 125 142 141 138 157 169 103 158 222 271 246 239 197 209 223 200 173 184 138 158 196 257 204 139 171 218 238 227 207 217 226 234 240 238 246 253 263 272 281 284 288 288 287 291
15 21 35 98 88 85 83 97 94 90 110 122 107 99 22 360 47 192 262 268 325 308 244 232 232 164 157 184 140 114 246 218 182 167 193 228 334 350 303 239 242 239 249 255 254 259 265 270 277 281 284 288 296 301
15 41 116 112 117 54 71 86 87 68 356 353 69 1 107 314 218 237 222 225 266 254 259 275 241 172 152 148 167 218 216 309 66 176 230 346 349 339 348 286 233 245 246 243 249 257 261 267 274 284 297 307 317 321
4 24 175 145 172 88 50 23 355 348 349 87 36 271 222 265 264 267 276 271 307 293 240 195 199 150 117 148 192 130 208 235 201 204 106 353 355 15 46 73 104 144 164 158 190 224 270 295 312 328 334 342 350 359
336 72 105 130 177 339 326 328 321 329 324 39 165 100 253 297 280 291 293 279 333 323 243 198 139 187 200 194 142 237 147 223 14 344 340 356 27 37 50 65 76 81 83 97 94 78 63 55 59 62 55 51 48 41
308 300 187 203 260 286 296 306 297 270 223 203 242 226 231 265 254 277 295 311 326 328 356 352 241 202 84 218 200 8 69 309 329 357 356 18 28 41 52 65 79 86 82 80 92 103 97 82 79 93 84 72 65 62
291 299 276 259 297 310 304 266 265 267 265 215 207 212 227 244 268 288 306 320 329 333 326 235 209 183 350 9 40 29 359 325 339 342 13 34 41 47 64 82 93 97 95 88 80 83 90 100 100 84 81 82 83 80
280 271 270 266 286 317 293 258 241 266 250 255 249 258 260 263 276 282 301 325 325 302 295 304 57 32 22 30 343 335 329 336 333 338 42 49 51 60 82 84 94 92 94 96 101 97 92 90 90 95 98 98 91 88
272 255 247 253 258 248 262 252 224 256 270 268 240 232 246 248 268 279 297 312 327 2 29 33 61 40 341 313 320 317 322 331 340 55 56 44 48 54 79 94 103 104 105 104 101 99 99 99 97 97 96 95 94 89
264 255 226 236 239 222 238 258 239 244 276 260 295 176 245 288 286 356 86 67 71 19 56 60 77 19 353 356 352 348 359 7 19 20 21 61 62 73 94 98 102 112 105 103 102 101 100 96 99 101 101 96 95 95
268 264 248 229 215 210 231 224 216 238 240 272 262 169 133 291 277 330 36 59 63 354 330 47 24 35 25 25 24 19 30 42 52 69 112 146 111 118 117 113 124 112 106 103 105 105 103 103 104 103 101 99 101 100
254 213 206 191 193 209 245 203 189 208 234 228 229 44 75 326 286 123 64 48 87 5 330 337 346 20 32 25 30 36 44 40 68 88 101 111 112 108 110 109 108 109 108 106 107 108 107 108 108 107 108 109 107 103
227 221 210 209 205 246 215 214 212 225 216 208 201 225 135 151 142 46 74 321 3 8 17 23 17 17 18 21 42 57 67 76 88 97 103 112 111 106 106 107 107 106 106 110 112 110 111 113 114 113 111 109 105 101
238 302 330 302 19 337 271 306 303 228 237 197 193 149 148 148 82 67 138 269 353 30 38 46 61 80 54 46 59 69 78 92 100 104 100 100 105 110 110 109 107 106 110 116 117 118 116 117 116 113 109 104 101 99
136 6 36 36 332 336 355 298 348 341 341 353 36 328 316 83 72 93 271 327 328 14 29 52 63 64 55 53 70 96 104 105 110 111 103 105 108 115 117 117 115 112 117 120 121 120 119 117 113 110 106 103 101 101
88 322 36 24 307 287 267 327 325 319 47 353 351 330 212 128 84 301 312 358 334 343 53 107 104 88 77 86 105 117 137 145 135 113 110 114 113 114 118 117 115 113 117 119 119 118 117 117 113 110 107 106 102 98
61 25 47 329 1 12 342 16 26 38 4 348 270 35 31 14 84 334 329 337 4 117 131 130 120 107 101 111 112 119 118 116 112 115 119 116 113 113 112 111 108 110 115 117 116 115 113 113 113 112 109 104 101 97
35 353 340 18 44 52 46 24 48 320 321 20 36 80 96 59 20 58 83 110 137 138 137 139 135 133 133 135 129 122 122 127 132 133 125 117 118 115 116 115 117 121 120 117 115 115 114 111 109 107 104 102 101 100
3 356 13 50 53 13 348 12 40 65 97 104 100 103 81 76 58 59 69 101 130 145 149 152 145 147 148 152 144 136 129 130 142 135 126 123 121 118 120 120 120 121 124 124 120 118 115 112 109 108 107 106 105 100
337 344 36 65 87 79 98 86 83 81 79 90 103 102 127 118 63 47 55 78 106 129 135 132 130 130 134 133 129 127 124 123 127 127 125 121 117 118 120 121 121 120 118 115 114 114 114 114 113 114 113 110 103 94
328 331 116 106 197 209 233 297 41 125 126 109 85 95 94 82 63 46 33 59 99 127 127 128 131 127 128 128 126 125 123 123 125 124 122 120 121 121 121 119 118 118 116 113 111 112 117 117 118 117 114 107 101 94
325 2 49 96 103 150 184 289 173 121 98 97 87 85 80 82 90 85 49 65 103 117 125 128 124 122 123 125 126 125 125 125 124 123 123 122 120 119 118 116 116 116 116 115 116 119 121 119 118 117 112 107 102 95
Wind_Speed_850mb
61 63 69 73 76 79 80 79 79 76 68 62 59 50 47 46 44 38 46 48 46 18 32 42 40 33 35 29 21 11 4 13 8 19 15 11 8 15 11 15 16 18 19 11 7 5 19 23 15 12 5 3 7 16
67 71 76 78 80 87 87 78 75 71 57 56 60 51 49 49 47 42 53 50 46 45 36 30 35 42 54 59 38 17 13 8 6 8 4 1 7 7 10 12 9 12 13 14 21 16 4 47 2 32 12 9 5 8
77 81 84 86 90 93 99 70 73 67 62 58 55 53 54 54 53 52 62 57 54 48 43 42 56 78 69 70 60 28 17 24 18 17 7 7 13 11 12 11 8 11 8 7 7 17 29 32 45 45 32 34 29 28
84 91 91 92 94 86 85 77 74 67 63 56 56 57 55 53 53 54 62 63 61 24 9 26 42 53 47 53 57 73 70 40 33 22 11 7 8 10 9 4 11 7 27 15 10 18 17 37 40 49 41 35 33 30
91 96 95 99 95 96 90 82 73 67 67 62 56 61 56 45 42 52 63 69 64 58 3 19 36 55 37 34 43 57 69 55 31 12 10 10 10 8 5 4 9 15 14 12 9 26 8 5 18 8 17 26 26 31
97 94 96 102 109 99 92 85 78 67 61 61 43 43 35 31 37 48 37 70 72 65 26 9 32 36 39 42 42 48 59 47 40 16 9 15 45 17 10 11 6 49 41 39 9 23 25 19 20 35 46 40 39 39
88 99 104 100 103 106 97 79 64 65 61 56 40 33 20 23 29 19 11 17 29 68 19 5 7 20 41 36 35 43 47 40 38 25 19 22 39 9 8 14 12 53 55 56 50 41 29 43 47 27 46 58 56 58
93 93 90 88 97 108 82 72 64 51 57 43 34 25 21 18 18 26 40 12 49 47 13 5 7 3 33 20 18 32 23 30 19 20 11 9 6 11 11 11 22 33 53 55 54 50 59 57 50 57 65 63 61 62
84 88 72 73 72 70 32 19 41 43 41 36 29 25 17 12 11 12 14 37 48 25 12 9 9 9 26 21 19 23 24 11 21 12 12 19 12 12 12 18 43 52 48 62 58 64 64 65 69 69 58 61 64 68
79 69 52 48 48 53 46 35 46 61 49 43 33 12 10 9 12 8 6 11 9 14 14 6 18 15 21 23 14 8 19 9 9 14 16 8 16 37 32 43 48 55 65 64 56 53 59 60 63 60 56 59 57 68
70 43 38 31 30 44 53 60 62 55 41 24 10 7 15 18 9 3 3 5 10 9 19 18 46 15 33 8 8 15 4 6 7 7 14 9 9 15 52 53 52 70 63 57 56 56 56 49 46 61 66 65 63 60
36 30 32 19 25 22 24 28 29 27 17 13 10 9 8 6 5 4 6 6 8 6 7 7 19 55 22 20 5 9 6 8 13 16 10 7 10 34 63 86 93 78 69 63 58 54 53 56 61 58 54 48 46 45
34 26 22 23 15 12 18 16 13 10 10 6 3 4 3 6 6 5 5 3 9 10 9 5 5 30 13 19 5 5 12 11 5 7 7 10 5 19 16 30 30 50 47 47 47 46 43 38 36 36 35 38 40 39
24 11 15 17 6 9 12 11 8 5 5 3 3 4 5 4 5 6 8 8 20 24 30 13 6 8 10 7 7 12 3 6 3 3 9 3 24 31 18 6 26 33 30 27 22 21 20 18 20 25 27 28 30 29
33 26 20 23 4 2 5 6 9 11 5 2 2 3 5 8 18 22 28 18 31 47 21 9 7 8 4 8 6 3 5 8 9 8 5 14 22 21 18 18 14 11 11 10 8 6 5 7 7 10 13 15 18 20
17 13 21 14 6 3 5 11 18 14 7 1 1 1 6 4 9 16 26 21 46 52 8 9 6 4 7 7 4 10 2 5 0 5 14 19 18 20 19 18 15 12 10 13 12 9 8 7 7 11 14 16 19 21
20 8 7 9 7 11 12 16 11 7 5 7 8 21 14 19 19 30 23 35 45 23 4 3 3 8 5 3 7 3 3 4 6 5 19 18 21 20 16 15 15 15 15 14 15 19 18 17 16 17 20 26 25 26
20 16 13 13 12 16 21 10 8 9 6 13 7 9 14 23 22 27 24 33 24 20 10 3 5 4 5 8 6 5 8 23 11 6 12 20 19 15 13 14 17 19 21 23 23 24 24 21 21 28 27 26 26 31
31 20 17 16 14 11 8 6 8 7 13 8 14 23 21 20 33 31 27 28 27 23 16 7 8 7 6 7 6 19 26 17 12 20 13 20 22 19 19 21 22 25 27 28 26 27 28 28 32 30 30 31 39 40
37 35 24 19 16 5 7 8 9 11 6 6 11 11 12 12 20 16 20 19 17 8 11 9 6 5 7 15 21 23 23 20 19 7 18 25 24 20 19 20 22 24 25 27 31 32 32 34 34 35 36 40 43 46
37 40 33 35 29 22 11 10 12 11 15 12 6 12 8 13 13 3 1 3 7 8 4 11 11 9 15 12 19 21 18 18 15 8 7 11 18 17 17 19 18 20 26 31 35 38 38 42 40 39 40 45 46 46
37 37 34 38 23 17 19 23 14 7 9 16 6 11 5 3 7 7 5 14 10 7 9 4 5 10 11 13 17 22 20 21 20 15 11 14 11 16 20 21 22 32 36 37 38 41 43 41 40 42 45 49 48 52
13 19 14 21 19 17 11 17 15 13 6 5 4 2 3 1 3 2 8 9 9 8 10 12 11 9 16 22 20 21 23 21 15 20 24 28 29 29 29 30 29 34 41 41 38 42 46 44 45 48 50 52 55 58
7 8 8 10 15 5 5 9 11 7 7 4 5 5 2 6 12 7 5 5 8 13 6 6 4 3 10 13 13 16 17 14 17 24 26 24 31 33 30 33 34 35 37 40 41 45 46 46 47 51 54 57 59 61
4 4 4 5 3 4 4 5 4 3 4 4 7 3 4 8 5 5 2 4 6 14 15 12 9 6 6 9 11 12 13 12 16 27 31 28 32 36 36 36 38 39 36 39 45 48 52 52 55 57 58 56 58 60
2 7 6 2 5 4 4 4 5 5 4 5 4 9 5 3 7 2 5 9 7 13 13 10 10 10 6 5 7 10 14 14 14 23 30 26 26 31 39 43 45 45 40 41 48 56 60 59 57 57 59 57 56 55
2 5 8 8 5 7 6 1 3 2 3 3 6 6 1 8 2 5 6 9 5 7 4 8 9 10 9 8 10 11 11 12 14 30 34 32 32 32 36 45 51 53 48 48 51 51 54 57 58 59 60 57 52 50
5 11 2 13 5 9 4 4 5 5 3 8 4 7 5 9 5 2 3 9 4 5 11 15 16 16 15 17 22 25 30 33 36 36 39 45 47 48 50 55 58 56 53 49 47 50 51 52 55 56 55 56 56 51
5 14 7 6 5 8 6 5 3 3 6 2 2 3 4 5 10 6 6 6 12 18 20 20 17 16 18 23 26 28 31 33 38 46 52 58 54 54 56 57 58 55 55 56 52 49 50 51 51 50 52 53 53 49
9 16 5 6 7 8 8 10 8 9 10 13 14 17 15 16 25 20 14 12 16 20 21 18 17 18 22 23 23 22 25 30 31 40 57 59 60 59 53 52 52 52 51 51 54 54 48 45 47 48 50 51 48 45
11 6 3 6 5 4 15 17 22 24 18 20 26 16 11 10 21 36 26 17 16 17 20 21 23 24 25 27 31 36 40 41 39 44 58 61 62 58 54 52 50 49 48 46 45 44 43 45 46 48 47 48 45 41
8 4 2 5 4 8 7 3 1 4 6 5 5 5 6 7 9 14 25 17 14 19 24 26 29 31 31 31 31 40 50 58 57 56 56 59 60 57 54 52 49 45 42 41 40 40 38 41 45 46 47 45 41 39
4 2 3 4 3 1 1 1 3 4 5 5 5 5 6 6 7 7 15 15 17 21 25 27 31 39 47 52 54 59 59 60 59 58 56 55 55 54 51 47 43 39 37 38 39 39 39 41 45 44 41 39 37 36
Wind_Direction_850mb
304 303 302 302 304 304 301 298 295 289 282 275 271 268 253 249 255 255 252 252 255 257 273 263 253 251 255 258 261 268 309 224 250 215 209 184 208 194 155 154 170 164 159 183 159 193 261 147 103 198 196 118 142 174
301 302 303 302 303 301 296 295 294 292 285 283 274 255 244 243 245 245 254 258 257 242 252 264 260 250 247 256 260 249 236 251 305 312 351 256 167 171 163 196 184 200 194 181 196 206 40 188 228 207 167 144 170 224
302 303 301 301 302 302 297 289 286 285 281 281 281 256 250 244 246 246 251 257 250 238 242 240 250 260 261 258 245 249 227 241 253 265 301 292 238 158 176 217 139 227 168 201 150 229 232 232 236 242 246 260 272 273
304 303 303 302 303 300 298 294 288 277 276 274 270 260 249 244 246 251 255 257 251 239 218 243 248 252 259 260 250 242 246 253 240 255 288 265 291 286 196 159 192 172 151 164 264 278 247 247 238 243 256 264 271 278
307 307 305 301 299 298 295 287 278 273 271 272 264 266 243 240 250 259 260 255 242 229 253 238 248 246 250 260 238 236 235 232 231 222 231 263 274 260 259 134 207 189 161 174 204 221 221 204 157 174 259 275 288 288
313 312 309 304 303 299 292 282 273 260 258 264 255 263 232 248 255 271 256 247 245 233 225 231 252 262 263 233 228 240 228 222 221 205 221 232 245 231 250 202 211 196 197 199 210 225 226 197 246 284 291 296 299 291
319 314 316 315 313 306 289 275 266 246 239 250 243 253 232 239 271 252 242 297 206 195 183 189 272 235 230 214 213 227 235 217 213 220 218 234 251 241 287 232 192 203 216 222 230 239 262 256 262 269 295 303 299 296
323 328 327 323 322 322 306 252 236 235 221 227 234 203 213 239 270 288 228 257 184 179 185 211 226 226 177 179 195 200 209 221 227 220 228 245 278 197 250 236 210 214 218 224 231 237 249 260 259 277 291 290 289 292
331 334 332 337 344 357 18 152 187 194 190 193 170 184 194 238 239 241 218 222 192 195 181 182 203 207 180 203 193 185 201 210 212 209 211 185 217 227 230 199 207 206 216 237 247 246 249 254 265 275 281 285 290 295
336 340 347 358 18 41 63 101 136 136 140 150 163 157 185 198 187 198 126 175 207 224 220 228 201 222 183 179 194 200 198 197 218 208 150 211 236 235 231 219 214 215 222 230 235 247 248 255 258 271 288 294 292 297
340 352 354 14 48 70 81 93 113 133 145 147 151 161 158 163 202 170 131 226 212 219 206 216 197 183 198 169 187 203 307 243 218 191 190 199 256 222 220 220 223 236 230 233 243 254 262 266 273 288 291 292 295 293
357 1 5 78 62 80 94 102 116 129 125 142 141 138 157 169 103 158 222 271 246 239 197 209 223 200 173 184 138 158 196 257 204 139 171 218 238 227 207 217 226 234 240 238 246 253 263 272 281 284 288 288 287 291
15 21 35 98 88 85 83 97 94 90 110 122 107 99 22 360 47 192 262 268 325 308 244 232 232 164 157 184 140 114 246 218 182 167 193 228 334 350 303 239 242 239 249 255 254 259 265 270 277 281 284 288 296 301
15 41 116 112 117 54 71 86 87 68 356 353 69 1 107 314 218 237 222 225 266 254 259 275 241 172 152 148 167 218 216 309 66 176 230 346 349 339 348 286 233 245 246 243 249 257 261 267 274 284 297 307 317 321
4 24 175 145 172 88 50 23 355 348 349 87 36 271 222 265 264 267 276 271 307 293 240 195 199 150 117 148 192 130 208 235 201 204 106 353 355 15 46 73 104 144 164 158 190 224 270 295 312 328 334 342 350 359
336 72 105 130 177 339 326 328 321 329 324 39 165 100 253 297 280 291 293 279 333 323 243 198 139 187 200 194 142 237 147 223 14 344 340 356 27 37 50 65 76 81 83 97 94 78 63 55 59 62 55 51 48 41
308 300 187 203 260 286 296 306 297 270 223 203 242 226 231 265 254 277 295 311 326 328 356 352 241 202 84 218 200 8 69 309 329 357 356 18 28 41 52 65 79 86 82 80 92 103 97 82 79 93 84 72 65 62
291 299 276 259 297 310 304 266 265 267 265 215 207 212 227 244 268 288 306 320 329 333 326 235 209 183 350 9 40 29 359 325 339 342 13 34 41 47 64 82 93 97 95 88 80 83 90 100 100 84 81 82 83 80
280 271 270 266 286 317 293 258 241 266 250 255 249 258 260 263 276 282 301 325 325 302 295 304 57 32 22 30 343 335 329 336 333 338 42 49 51 60 82 84 94 92 94 96 101 97 92 90 90 95 98 98 91 88
272 255 247 253 258 248 262 252 224 256 270 268 240 232 246 248 268 279 297 312 327 2 29 33 61 40 341 313 320 317 322 331 340 55 56 44 48 54 79 94 103 104 105 104 101 99 99 99 97 97 96 95 94 89
264 255 226 236 239 222 238 258 239 244 276 260 295 176 245 288 286 356 86 67 71 19 56 60 77 19 353 356 352 348 359 7 19 20 21 61 62 73 94 98 102 112 105 103 102 101 100 96 99 101 101 96 95 95
268 264 248 229 215 210 231 224 216 238 240 272 262 169 133 291 277 330 36 59 63 354 330 47 24 35 25 25 24 19 30 42 52 69 112 146 111 118 117 113 124 112 106 103 105 105 103 103 104 103 101 99 101 100
254 213 206 191 193 209 245 203 189 208 234 228 229 44 75 326 286 123 64 48 87 5 330 337 346 20 32 25 30 36 44 40 68 88 101 111 112 108 110 109 108 109 108 106 107 108 107 108 108 107 108 109 107 103
227 221 210 209 205 246 215 214 212 225 216 208 201 225 135 151 142 46 74 321 3 8 17 23 17 17 18 21 42 57 67 76 88 97 103 112 111 106 106 107 107 106 106 110 112 110 111 113 114 113 111 109 105 101
238 302 330 302 19 337 271 306 303 228 237 197 193 149 148 148 82 67 138 269 353 30 38 46 61 80 54 46 59 69 78 92 100 104 100 100 105 110 110 109 107 106 110 116 117 118 116 117 116 113 109 104 101 99
136 6 36 36 332 336 355 298 348 341 341 353 36 328 316 83 72 93 271 327 328 14 29 52 63 64 55 53 70 96 104 105 110 111 103 105 108 115 117 117 115 112 117 120 121 120 119 117 113 110 106 103 101 101
88 322 36 24 307 287 267 327 325 319 47 353 351 330 212 128 84 301 312 358 334 343 53 107 104 88 77 86 105 117 137 145 135 113 110 114 113 114 118 117 115 113 117 119 119 118 117 117 113 110 107 106 102 98
61 25 47 329 1 12 342 16 26 38 4 348 270 35 31 14 84 334 329 337 4 117 131 130 120 107 101 111 112 119 118 116 112 115 119 116 113 113 112 111 108 110 115 117 116 115 113 113 113 112 109 104 101 97
35 353 340 18 44 52 46 24 48 320 321 20 36 80 96 59 20 58 83 110 137 138 137 139 135 133 133 135 129 122 122 127 132 133 125 117 118 115 116 115 117 121 120 117 115 115 114 111 109 107 104 102 101 100
3 356 13 50 53 13 348 12 40 65 97 104 100 103 81 76 58 59 69 101 130 145 149 152 145 147 148 152 144 136 129 130 142 135 126 123 121 118 120 120 120 121 124 124 120 118 115 112 109 108 107 106 105 100
337 344 36 65 87 79 98 86 83 81 79 90 103 102 127 118 63 47 55 78 106 129 135 132 130 130 134 133 129 127 124 123 127 127 125 121 117 118 120 121 121 120 118 115 114 114 114 114 113 114 113 110 103 94
328 331 116 106 197 209 233 297 41 125 126 109 85 95 94 82 63 46 33 59 99 127 127 128 131 127 128 128 126 125 123 123 125 124 122 120 121 121 121 119 118 118 116 113 111 112 117 117 118 117 114 107 101 94
325 2 49 96 103 150 184 289 173 121 98 97 87 85 80 82 90 85 49 65 103 117 125 128 124 122 123 125 126 125 125 125 124 123 123 122 120 119 118 116 116 116 116 115 116 119 121 119 118 117 112 107 102 95